sat.trackr.live / text

‹ back to catalog

STARLINK-2472

NORAD 48130 · 2021-027AQ

PAYLOAD ACTIVE UNKNOWN

§ Identity

Operator
Country
US
Launch date
2021-04-07
Launch site
AFETR
Launch vehicle
Mass (kg)
RCS (m²)

Purposes: comms

External: N2YO · Heavens-Above · Gunter

§ Orbital elements

Epoch: 2026-05-24T18:35:35.199744Z

Period
94.01 min
Inclination
53.1585°
Eccentricity
0.0001238
Mean motion
15.31699310 rev/d
Perigee alt
469.9 km
Apogee alt
471.6 km
Semi-major
6,848.9 km
B*
8.5682e-6
RAAN
174.3104°
Arg perigee
89.6632°
Mean anomaly
270.4511°
Rev number
28,413

§ Raw data

STARLINK-24721 48130U 21027AQ  26144.77471296 -.00000099  00000+0  85682-5 0  99902 48130  53.1585 174.3104 0001238  89.6632 270.4511 15.31699310284139

JSON: /api/v1/satellites/48130 · /tle

For live sub-satellite position, see the globe view (requires WebGL).

§ Visibility from observer

Set your observer location to see the next 7 days of passes ≥ 10°. The values pass through the URL so the page stays shareable.

No JS? Fill the form by hand. The geolocation button needs JavaScript.